[[{"header":{"parameterUnit":"m.s-1","parameterCategory":1,"la1":30.2991,"la2":30.254,"lo1":-89.0895,"lo2":-89.0444,"dy":0.0017,"dx":0.0017,"nx":28,"ny":28,"refTime":"2023-08-29T21:00:00:Z","depth":0,"parameterNumber":2,"parameterNumberName":"U-component_of_WINDS"},"data":[0,0,0,0,0,0,0,0,0,0,0,0,0,0,0,0,0,0,0,0,0,0,0,0,0,0,0,0,0,0,0,0,0,0,0,0,0,0,0,0,0,0,0,0,0,0,0,0,0,0,0,0,0,0,0,0,0,0,0.6284,0.6285,0,0.6431,0.6433,0.6434,0.6461,0.6459,0.6458,0.6457,0.661,0.6615,0.662,0,0,0,0,0,0,0,0,0,0,0,0,0,0.6028,0.6033,0.6284,0.6286,0.6287,0.6431,0.6433,0.6435,0.6461,0.6459,0.6458,0.6457,0.6608,0.6614,0.6621,0,0,0,0,0,0,0,0,0,0,0,0,0,0.6154,0.6034,0.6283,0.6318,0.6322,0.643,0.6433,0.6435,0.6461,0.6459,0.6458,0.6456,0.6606,0.6614,0.6621,0.6706,0,0,0.6645,0.6649,0,0,0,0,0,0,0,0,0.6147,0.6163,0.6311,0.6316,0.6321,0.6426,0.6399,0.6526,0.6462,0.6409,0.6457,0.6455,0.655,0.6562,0.6594,0.6713,0.672,0.6646,0.6651,0.6654,0.6656,0,0,0,0,0,0,0,0.6138,0.6157,0.6342,0.6313,0.6319,0.6327,0.6342,0.6423,0.6488,0.6413,0.6415,0.6432,0.6553,0.6587,0.6598,0.6722,0.6646,0.6653,0.6658,0.6661,0.6921,0.6923,0,0,0,0,0,0,0.6123,0.615,0.6337,0.6346,0.6227,0.6333,0.635,0.6394,0.6487,0.6499,0.6434,0.6433,0.6574,0.6589,0.6603,0.6711,0.6654,0.6661,0.6666,0.6919,0.6921,0.6924,0,0,0,0,0,0,0.6117,0.6139,0.6331,0.6249,0.6274,0.6339,0.6388,0.6398,0.6432,0.6503,0.6515,0.6456,0.6573,0.6592,0.6681,0.6716,0.6665,0.6672,0.6916,0.6919,0.6922,0.6924,0,0,0,0,0,0,0.611,0.6137,0.6169,0.6249,0.6278,0.6406,0.639,0.6402,0.6445,0.6445,0.6527,0.6539,0.6573,0.6669,0.6689,0.6726,0.6678,0.6913,0.6917,0.6921,0.6921,0.6927,0.6932,0,0,0,0,0,0.6101,0.6164,0.6171,0.6193,0.632,0.6407,0.6424,0.6462,0.6447,0.6481,0.6527,0.6536,0.6709,0.6678,0.67,0.674,0.6911,0.6916,0.6921,0.6919,0.6926,0.6932,0,0,0,0,0,0,0.6087,0.6175,0.6184,0.6275,0.6333,0.6412,0.6455,0.6468,0.6532,0.653,0.6575,0.6593,0.668,0.6719,0.6683,0.6828,0.6809,0.6819,0.68,0.6807,0.6812,0.6802,0.6685,0,0,0,0,0,0.6094,0.6158,0.6231,0.6305,0.6334,0.6389,0.6429,0.6453,0.6516,0.6541,0.6593,0.6655,0.6723,0.6767,0.6834,0.6927,0.6946,0.6965,0.6971,0.6975,0.6983,0.7037,0.7047,0.694,0.694,0.694,0,0,0.6111,0.6167,0.6204,0.6303,0.6352,0.6418,0.641,0.6479,0.6529,0.6552,0.6639,0.6679,0.6751,0.6842,0.6885,0.6878,0.7017,0.6981,0.6984,0.699,0.7043,0.7053,0.7062,0.6943,0.6943,0.6942,0,0,0.6174,0.6222,0.6289,0.6338,0.6411,0.6448,0.6464,0.6541,0.6569,0.6656,0.6675,0.6735,0.6851,0.6902,0.6943,0.7027,0.7039,0.7047,0.7076,0.7128,0.7137,0.7145,0.7176,0.7187,0.7055,0.7055,0.7055,0,0.6186,0.6285,0.6322,0.6392,0.6436,0.6459,0.6528,0.6573,0.6665,0.6695,0.6685,0.6832,0.6882,0.6986,0.7007,0.7039,0.706,0.7039,0.7132,0.714,0.7148,0.7179,0.719,0.7056,0.7056,0.7056,0.7056,0,0.6296,0.6364,0.641,0.6497,0.6546,0.6615,0.6664,0.6709,0.6729,0.6767,0.6857,0.6918,0.6998,0.7024,0.7044,0.7132,0.7125,0.7123,0.7105,0.7159,0.7188,0.72,0.7057,0.7057,0.7056,0.7056,0,0,0.6355,0.6463,0.6479,0.652,0.6603,0.6657,0.6727,0.6805,0.6844,0.6906,0.6967,0.7065,0.7064,0.7111,0.7137,0.7182,0.7247,0.7175,0.7177,0.7188,0.735,0.7352,0.7364,0.7255,0.7257,0.7259,0.7344,0,0.643,0.6556,0.6592,0.6698,0.6763,0.6786,0.6848,0.6906,0.6944,0.7005,0.7046,0.7116,0.7108,0.7137,0.7183,0.7229,0.728,0.7223,0.7313,0.7316,0.7296,0.738,0.7382,0.7459,0.7356,0.7358,0.7359,0,0.6534,0.6598,0.6711,0.6787,0.6815,0.687,0.6945,0.7002,0.7069,0.7093,0.7146,0.7168,0.7244,0.722,0.7326,0.7286,0.7325,0.7354,0.7358,0.7369,0.7342,0.7394,0.7485,0.7497,0.7377,0.7376,0.7375,0,0.6568,0.6683,0.6765,0.6799,0.6889,0.6927,0.6967,0.7032,0.7077,0.7142,0.7172,0.7246,0.7286,0.7343,0.7386,0.7364,0.7488,0.7468,0.7512,0.7511,0.7538,0.7536,0.7637,0.7561,0.756,0.756,0.756,0,0.6648,0.6717,0.6782,0.6833,0.6911,0.6953,0.7029,0.7069,0.7127,0.7187,0.7212,0.7268,0.7319,0.7383,0.7416,0.75,0.7517,0.754,0.7549,0.7539,0.7536,0.7566,0.7562,0.7563,0.7563,0.7562,0.7561,0,0.67,0.6746,0.6838,0.6916,0.6937,0.6991,0.7058,0.711,0.7148,0.7224,0.7244,0.7305,0.7381,0.7428,0.7525,0.7547,0.7639,0.7645,0.7617,0.7621,0.7663,0.7659,0.7788,0.7808,0.7716,0.7717,0.7718,0,0.6749,0.6802,0.6886,0.6928,0.6967,0.7034,0.708,0.7124,0.7171,0.7252,0.7293,0.7371,0.7435,0.7556,0.7609,0.7683,0.7692,0.7732,0.7703,0.7692,0.7695,0.7691,0.7698,0.7737,0.7738,0.7739,0.7739,0,0.6831,0.6852,0.6917,0.699,0.7044,0.7105,0.7165,0.7198,0.7251,0.7303,0.7381,0.7431,0.753,0.7607,0.7686,0.7728,0.7743,0.7748,0.7762,0.7754,0.7736,0.7748,0.7631,0.7745,0.7744,0.7744,0.7744,0.7743,0.6885,0.6934,0.7,0.7072,0.7122,0.7178,0.723,0.7275,0.734,0.7424,0.7446,0.7528,0.7595,0.7702,0.7746,0.7811,0.7806,0.7826,0.7832,0.7836,0.7838,0.7724,0.7826,0.7825,0.7825,0.7825,0.7825,0,0.697,0.7014,0.708,0.7163,0.722,0.7229,0.7296,0.7343,0.7415,0.7475,0.7538,0.7629,0.7704,0.7763,0.7841,0.7882,0.7891,0.7901,0.7899,0.7909,0.7838,0.7818,0.7892,0.7892,0.7892,0.7892,0.7892,0.7892,0.7021,0.7105,0.7133,0.7242,0.7287,0.7367,0.7404,0.7457,0.7505,0.7605,0.7667,0.7705,0.7766,0.7848,0.7918,0.7934,0.7962,0.7971,0.7988,0.7921,0.7913,0.7907,0.7889,0.7976,0.7976,0.8054,0.8055,0.8055]},{"header":{"parameterUnit":"m.s-1","parameterCategory":1,"la1":30.2991,"la2":30.254,"lo1":-89.0895,"lo2":-89.0444,"dy":0.0017,"dx":0.0017,"nx":28,"ny":28,"refTime":"2023-08-29T21:00:00:Z","depth":0,"parameterNumber":3,"parameterNumberName":"V-component_of_WINDS"},"data":[0,0,0,0,0,0,0,0,0,0,0,0,0,0,0,0,0,0,0,0,0,0,0,0,0,0,0,0,0,0,0,0,0,0,0,0,0,0,0,0,0,0,0,0,0,0,0,0,0,0,0,0,0,0,0,0,0,0,-1.2678,-1.2678,0,-1.2743,-1.2743,-1.2744,-1.2869,-1.2872,-1.2874,-1.2876,-1.294,-1.294,-1.2939,0,0,0,0,0,0,0,0,0,0,0,0,0,-1.266,-1.266,-1.2678,-1.2678,-1.2679,-1.2743,-1.2743,-1.2744,-1.2869,-1.2872,-1.2875,-1.2878,-1.294,-1.294,-1.2939,0,0,0,0,0,0,0,0,0,0,0,0,0,-1.2691,-1.266,-1.2677,-1.2749,-1.2756,-1.2742,-1.2744,-1.2745,-1.2868,-1.2872,-1.2876,-1.2879,-1.2941,-1.294,-1.2939,-1.286,0,0,-1.2936,-1.2936,0,0,0,0,0,0,0,0,-1.2689,-1.2691,-1.2738,-1.2744,-1.2752,-1.2802,-1.2761,-1.2783,-1.2867,-1.2825,-1.2876,-1.2881,-1.2891,-1.2894,-1.2898,-1.2863,-1.2866,-1.2936,-1.2936,-1.2935,-1.2935,0,0,0,0,0,0,0,-1.2686,-1.2689,-1.2703,-1.2738,-1.2747,-1.2778,-1.2786,-1.2766,-1.2837,-1.2829,-1.2839,-1.2845,-1.2896,-1.2899,-1.2901,-1.2866,-1.2936,-1.2935,-1.2935,-1.2934,-1.2771,-1.2768,0,0,0,0,0,0,-1.2674,-1.2686,-1.2701,-1.2705,-1.2729,-1.2775,-1.2784,-1.2782,-1.2837,-1.2849,-1.2842,-1.285,-1.2899,-1.2902,-1.2903,-1.2815,-1.2935,-1.2934,-1.2934,-1.2775,-1.277,-1.2766,0,0,0,0,0,0,-1.2673,-1.2674,-1.2699,-1.2698,-1.2704,-1.2771,-1.2768,-1.2781,-1.2785,-1.2847,-1.286,-1.2832,-1.2902,-1.2905,-1.287,-1.2819,-1.2934,-1.2933,-1.278,-1.2774,-1.2768,-1.2636,0,0,0,0,0,0,-1.2672,-1.2673,-1.2644,-1.2697,-1.2703,-1.2664,-1.2765,-1.278,-1.2783,-1.2795,-1.2841,-1.2852,-1.2905,-1.2871,-1.2869,-1.282,-1.2932,-1.2784,-1.2777,-1.277,-1.2645,-1.2626,-1.261,0,0,0,0,0,-1.2671,-1.2603,-1.2641,-1.2643,-1.2668,-1.266,-1.2664,-1.2727,-1.2779,-1.2749,-1.279,-1.2851,-1.2825,-1.2866,-1.2866,-1.2815,-1.2788,-1.2779,-1.2771,-1.2653,-1.263,-1.2611,0,0,0,0,0,0,-1.254,-1.2611,-1.2654,-1.2602,-1.2624,-1.2682,-1.2646,-1.2701,-1.2708,-1.2719,-1.2797,-1.2806,-1.2761,-1.2785,-1.2829,-1.2742,-1.2816,-1.2807,-1.2727,-1.2706,-1.2689,-1.2682,-1.2932,0,0,0,0,0,-1.2505,-1.2494,-1.2557,-1.2504,-1.2513,-1.2578,-1.2577,-1.2624,-1.265,-1.2659,-1.2697,-1.272,-1.2718,-1.2714,-1.2715,-1.2651,-1.2663,-1.2616,-1.2598,-1.2584,-1.2574,-1.2543,-1.2523,-1.2738,-1.2738,-1.2738,0,0,-1.2432,-1.247,-1.2457,-1.2478,-1.2501,-1.2487,-1.2584,-1.2565,-1.2556,-1.2657,-1.2626,-1.2655,-1.2686,-1.2636,-1.2616,-1.2655,-1.2518,-1.2573,-1.2561,-1.2559,-1.2532,-1.2511,-1.2493,-1.2732,-1.2733,-1.2734,0,0,-1.2292,-1.2319,-1.2279,-1.2301,-1.2335,-1.2379,-1.237,-1.242,-1.2443,-1.2414,-1.249,-1.248,-1.2474,-1.2493,-1.2502,-1.2373,-1.2429,-1.2371,-1.2279,-1.2247,-1.223,-1.2215,-1.2168,-1.215,-1.2362,-1.2361,-1.2361,0,-1.2196,-1.2178,-1.225,-1.2227,-1.2234,-1.2327,-1.2286,-1.2304,-1.2336,-1.2339,-1.2383,-1.2379,-1.2406,-1.2362,-1.2331,-1.2335,-1.2326,-1.2364,-1.2227,-1.2213,-1.22,-1.2156,-1.2138,-1.2354,-1.2355,-1.2356,-1.2356,0,-1.2059,-1.2046,-1.2009,-1.2039,-1.2043,-1.201,-1.2077,-1.2072,-1.212,-1.216,-1.213,-1.2167,-1.2177,-1.2172,-1.2217,-1.2135,-1.2158,-1.2213,-1.2289,-1.2171,-1.2131,-1.2115,-1.2343,-1.2346,-1.2348,-1.235,0,0,-1.1833,-1.1907,-1.1891,-1.1907,-1.1954,-1.1945,-1.1918,-1.193,-1.1923,-1.1944,-1.1923,-1.1917,-1.197,-1.198,-1.2029,-1.2002,-1.1897,-1.2061,-1.2063,-1.2028,-1.1808,-1.1764,-1.1743,-1.1936,-1.1933,-1.1931,-1.1805,0,-1.1701,-1.1658,-1.1724,-1.1666,-1.1655,-1.1746,-1.1722,-1.1748,-1.1786,-1.1782,-1.1824,-1.1818,-1.1888,-1.1895,-1.1872,-1.1914,-1.1853,-1.1925,-1.1916,-1.1915,-1.1902,-1.1722,-1.1675,-1.1553,-1.179,-1.1787,-1.1785,0,-1.1539,-1.1554,-1.1495,-1.1547,-1.1545,-1.1522,-1.1539,-1.1535,-1.1567,-1.1597,-1.1609,-1.1669,-1.1647,-1.1723,-1.1693,-1.174,-1.1742,-1.1762,-1.1759,-1.1758,-1.184,-1.1714,-1.1516,-1.1497,-1.1761,-1.1763,-1.1765,0,-1.1378,-1.1383,-1.1349,-1.136,-1.142,-1.1402,-1.1427,-1.1463,-1.1467,-1.1482,-1.1485,-1.1497,-1.1503,-1.1512,-1.1574,-1.1623,-1.1536,-1.1617,-1.1559,-1.1557,-1.1533,-1.1533,-1.133,-1.1538,-1.1538,-1.1539,-1.1539,0,-1.1222,-1.1182,-1.1277,-1.1255,-1.1214,-1.1291,-1.1248,-1.1282,-1.1314,-1.1301,-1.1381,-1.1367,-1.1451,-1.1446,-1.1495,-1.1463,-1.1466,-1.1488,-1.1501,-1.1479,-1.1476,-1.1478,-1.1487,-1.1534,-1.1535,-1.1536,-1.1537,0,-1.1033,-1.1095,-1.1064,-1.1125,-1.114,-1.1106,-1.1158,-1.1141,-1.1186,-1.1168,-1.1169,-1.1237,-1.1236,-1.1301,-1.1312,-1.1345,-1.1291,-1.1321,-1.1279,-1.1288,-1.1225,-1.1229,-1.1014,-1.0989,-1.1215,-1.1213,-1.1211,0,-1.0927,-1.0899,-1.0958,-1.0955,-1.0976,-1.097,-1.0975,-1.1051,-1.1053,-1.109,-1.1068,-1.1074,-1.1082,-1.1077,-1.1128,-1.1138,-1.1166,-1.1091,-1.1168,-1.1147,-1.1163,-1.1163,-1.116,-1.1073,-1.107,-1.1068,-1.1066,0,-1.0732,-1.0765,-1.0769,-1.0784,-1.0788,-1.0803,-1.0824,-1.0817,-1.0901,-1.0899,-1.0899,-1.0906,-1.092,-1.0924,-1.0944,-1.097,-1.1031,-1.1042,-1.1029,-1.1004,-1.0981,-1.0991,-1.1232,-1.1045,-1.1047,-1.1049,-1.105,-1.1051,-1.058,-1.056,-1.0598,-1.06,-1.0625,-1.0642,-1.0629,-1.0674,-1.0676,-1.0692,-1.0738,-1.0731,-1.0767,-1.0801,-1.0822,-1.0818,-1.0855,-1.0836,-1.0831,-1.0824,-1.0811,-1.0984,-1.0822,-1.0823,-1.0823,-1.0824,-1.0824,0,-1.0388,-1.0418,-1.042,-1.0447,-1.0449,-1.0509,-1.0536,-1.0533,-1.0526,-1.0555,-1.0563,-1.0564,-1.057,-1.0623,-1.0635,-1.0622,-1.065,-1.0622,-1.0622,-1.0627,-1.0778,-1.0787,-1.0599,-1.0599,-1.0599,-1.0599,-1.0599,-1.0599,-1.0288,-1.0256,-1.0294,-1.0275,-1.0307,-1.0301,-1.0311,-1.0328,-1.0352,-1.035,-1.0355,-1.0391,-1.043,-1.0446,-1.0455,-1.0471,-1.047,-1.0432,-1.0457,-1.0595,-1.0617,-1.0637,-1.0646,-1.0432,-1.0432,-1.0307,-1.0306,-1.0305]}]]